TimeEST,TemperatureF,Dew PointF,Humidity,Sea Level PressureIn,VisibilityMPH,Wind Direction,Wind SpeedMPH,Gust SpeedMPH,PrecipitationIn,Events,Conditions,WindDirDegrees,DateUTC
12:53 AM,37.9,26.1,62,30.40,10.0,NNE,3.5,-,N/A,,Clear,20,2012-11-18 05:53:00
1:53 AM,32.0,27.0,82,30.40,10.0,Calm,Calm,-,N/A,,Clear,0,2012-11-18 06:53:00
2:53 AM,32.0,26.1,79,30.41,10.0,Calm,Calm,-,N/A,,Clear,0,2012-11-18 07:53:00
3:53 AM,30.0,26.1,85,30.41,10.0,Calm,Calm,-,N/A,,Clear,0,2012-11-18 08:53:00
4:53 AM,30.0,25.0,82,30.42,10.0,Calm,Calm,-,N/A,,Clear,0,2012-11-18 09:53:00
5:53 AM,28.9,26.1,89,30.43,10.0,Calm,Calm,-,N/A,,Clear,0,2012-11-18 10:53:00
6:53 AM,28.9,24.1,82,30.44,10.0,Calm,Calm,-,N/A,,Clear,0,2012-11-18 11:53:00
7:53 AM,28.0,25.0,88,30.45,10.0,Calm,Calm,-,N/A,,Clear,0,2012-11-18 12:53:00
8:53 AM,36.0,30.0,79,30.45,10.0,Calm,Calm,-,N/A,,Clear,0,2012-11-18 13:53:00
9:53 AM,48.0,25.0,41,30.44,10.0,SE,4.6,-,N/A,,Clear,130,2012-11-18 14:53:00
10:53 AM,52.0,19.9,28,30.44,10.0,South,6.9,-,N/A,,Clear,170,2012-11-18 15:53:00
11:53 AM,55.9,21.9,27,30.41,10.0,SSW,3.5,-,N/A,,Clear,210,2012-11-18 16:53:00
12:53 PM,59.0,21.9,24,30.38,10.0,ESE,3.5,-,N/A,,Clear,120,2012-11-18 17:53:00
1:53 PM,60.1,21.0,22,30.37,10.0,Calm,Calm,-,N/A,,Clear,0,2012-11-18 18:53:00
2:53 PM,61.0,21.0,21,30.35,10.0,SW,4.6,-,N/A,,Clear,230,2012-11-18 19:53:00
3:53 PM,62.1,21.0,21,30.35,10.0,Calm,Calm,-,N/A,,Clear,0,2012-11-18 20:53:00
4:53 PM,60.1,21.9,23,30.35,10.0,NNW,4.6,-,N/A,,Clear,330,2012-11-18 21:53:00
5:53 PM,53.1,25.0,34,30.36,10.0,Calm,Calm,-,N/A,,Clear,0,2012-11-18 22:53:00
6:53 PM,46.0,28.0,50,30.38,10.0,Calm,Calm,-,N/A,,Clear,0,2012-11-18 23:53:00
7:53 PM,42.1,28.9,60,30.39,10.0,Calm,Calm,-,N/A,,Clear,0,2012-11-19 00:53:00
8:53 PM,39.0,28.9,67,30.38,10.0,Calm,Calm,-,N/A,,Clear,0,2012-11-19 01:53:00
9:53 PM,37.0,28.9,73,30.37,10.0,Calm,Calm,-,N/A,,Clear,0,2012-11-19 02:53:00
10:53 PM,36.0,28.9,76,30.37,10.0,Calm,Calm,-,N/A,,Clear,0,2012-11-19 03:53:00
11:53 PM,34.0,28.9,82,30.37,10.0,Calm,Calm,-,N/A,,Clear,0,2012-11-19 04:53:00